[[{"header":{"parameterUnit":"m.s-1","parameterCategory":2,"la1":30.2991,"la2":30.254,"lo1":-89.0895,"lo2":-89.0444,"dy":0.0017,"dx":0.0017,"nx":28,"ny":28,"refTime":"2024-02-08T03:00:00:Z","depth":"0","parameterNumber":2,"parameterNumberName":"U-component_of_CURRENTS"},"data":[0,0,0,0,0,0,0,0,0,0,0,0,0,0,0,0,0,0,0,0,0,0,0,0,0,0,0,0,0,0,0,0,0,0,0,0,0,0,0,0,0,0,0,0,0,0,0,0,0,0,0,0,0,0,0,0,0,0,-0.2434,-0.2434,0,-0.2463,-0.2463,-0.2463,-0.2437,-0.2437,-0.2436,-0.2435,-0.2402,-0.2401,-0.2401,0,0,0,0,0,0,0,0,0,0,0,0,0,-0.2359,-0.236,-0.2434,-0.2435,-0.2435,-0.2463,-0.2463,-0.2463,-0.2437,-0.2436,-0.2435,-0.2435,-0.2402,-0.2401,-0.2401,0,0,0,0,0,0,0,0,0,0,0,0,0,-0.2388,-0.2361,-0.2434,-0.2428,-0.2427,-0.2463,-0.2463,-0.2463,-0.2438,-0.2436,-0.2435,-0.2434,-0.2402,-0.2401,-0.2401,-0.2425,0,0,-0.2401,-0.2401,0,0,0,0,0,0,0,0,-0.2386,-0.239,-0.2428,-0.2428,-0.2428,-0.2447,-0.2424,-0.2448,-0.2438,-0.2431,-0.2435,-0.2433,-0.2414,-0.2412,-0.2418,-0.2423,-0.2422,-0.2401,-0.2401,-0.24,-0.24,0,0,0,0,0,0,0,-0.2384,-0.2389,-0.2443,-0.2429,-0.2429,-0.2424,-0.2427,-0.2429,-0.2426,-0.2432,-0.243,-0.2438,-0.2413,-0.2418,-0.2417,-0.2421,-0.2401,-0.24,-0.24,-0.24,-0.244,-0.2441,0,0,0,0,0,0,-0.2387,-0.2387,-0.2442,-0.2444,-0.2406,-0.2427,-0.2429,-0.244,-0.2427,-0.2425,-0.2439,-0.2437,-0.2419,-0.2417,-0.2415,-0.2438,-0.24,-0.24,-0.24,-0.2439,-0.244,-0.2441,0,0,0,0,0,0,-0.2386,-0.2392,-0.2441,-0.2418,-0.2424,-0.243,-0.2442,-0.2442,-0.2441,-0.2434,-0.243,-0.2438,-0.2418,-0.2416,-0.2417,-0.2437,-0.24,-0.24,-0.2437,-0.2439,-0.2441,-0.2487,0,0,0,0,0,0,-0.2383,-0.2391,-0.2396,-0.2418,-0.2425,-0.2461,-0.2444,-0.2443,-0.2449,-0.2446,-0.2432,-0.2428,-0.2417,-0.2418,-0.2417,-0.2436,-0.24,-0.2436,-0.2438,-0.244,-0.2484,-0.249,-0.2495,0,0,0,0,0,-0.2381,-0.2392,-0.2396,-0.2402,-0.2433,-0.2462,-0.2465,-0.2463,-0.2451,-0.2456,-0.2446,-0.2428,-0.2431,-0.2418,-0.2417,-0.2437,-0.2435,-0.2438,-0.244,-0.2481,-0.2488,-0.2495,0,0,0,0,0,0,-0.2357,-0.2392,-0.2396,-0.2416,-0.2438,-0.2459,-0.2462,-0.2466,-0.2464,-0.2455,-0.2441,-0.2438,-0.2449,-0.2438,-0.2425,-0.2456,-0.2431,-0.2434,-0.2463,-0.247,-0.2475,-0.247,-0.24,0,0,0,0,0,-0.2358,-0.2372,-0.2408,-0.2419,-0.2432,-0.2448,-0.2457,-0.2462,-0.2468,-0.2465,-0.2459,-0.2455,-0.2463,-0.246,-0.2463,-0.2477,-0.2455,-0.2491,-0.2496,-0.2501,-0.2497,-0.2497,-0.2501,-0.245,-0.245,-0.245,0,0,-0.2351,-0.2371,-0.2379,-0.2415,-0.2427,-0.2458,-0.2449,-0.2466,-0.2488,-0.2463,-0.2476,-0.2474,-0.2472,-0.249,-0.2494,-0.248,-0.2501,-0.2504,-0.2508,-0.2502,-0.25,-0.2505,-0.2509,-0.2452,-0.2451,-0.2451,0,0,-0.2352,-0.2364,-0.2383,-0.2408,-0.2439,-0.2456,-0.2463,-0.2489,-0.2494,-0.2516,-0.2506,-0.2513,-0.252,-0.2527,-0.2531,-0.257,-0.2534,-0.2572,-0.2593,-0.2593,-0.2597,-0.26,-0.2563,-0.2563,-0.2572,-0.2573,-0.2573,0,-0.2342,-0.2373,-0.2391,-0.2422,-0.2441,-0.2457,-0.2486,-0.2506,-0.2528,-0.2536,-0.2522,-0.2546,-0.2541,-0.257,-0.2582,-0.2582,-0.2561,-0.2566,-0.2599,-0.2602,-0.2604,-0.2566,-0.2565,-0.2575,-0.2575,-0.2575,-0.2574,0,-0.2366,-0.2392,-0.2403,-0.2449,-0.2473,-0.2497,-0.2535,-0.2556,-0.2561,-0.2577,-0.2601,-0.26,-0.2609,-0.2618,-0.261,-0.2634,-0.2605,-0.2608,-0.2579,-0.2612,-0.257,-0.2568,-0.2579,-0.2578,-0.2577,-0.2576,0,0,-0.2332,-0.2407,-0.2407,-0.2435,-0.2488,-0.251,-0.2554,-0.2596,-0.2618,-0.2636,-0.2656,-0.2679,-0.2668,-0.2671,-0.2667,-0.2667,-0.2662,-0.2642,-0.2641,-0.2599,-0.2631,-0.2551,-0.254,-0.267,-0.267,-0.2671,-0.2589,0,-0.234,-0.2395,-0.2434,-0.2482,-0.2513,-0.2553,-0.2593,-0.2632,-0.2653,-0.2677,-0.2686,-0.27,-0.2693,-0.2691,-0.2696,-0.2675,-0.2661,-0.2682,-0.2611,-0.2608,-0.2528,-0.2537,-0.2438,-0.2352,-0.2587,-0.2586,-0.2586,0,-0.2345,-0.2382,-0.2431,-0.2502,-0.2518,-0.2551,-0.2604,-0.2646,-0.2693,-0.2707,-0.2726,-0.2727,-0.2736,-0.272,-0.2698,-0.2709,-0.2669,-0.2648,-0.2644,-0.255,-0.2524,-0.2361,-0.2339,-0.2311,-0.2582,-0.2583,-0.2583,0,-0.2296,-0.2375,-0.2408,-0.2433,-0.2521,-0.2545,-0.2585,-0.2643,-0.2673,-0.2715,-0.2729,-0.2745,-0.2742,-0.2718,-0.2674,-0.2684,-0.263,-0.2639,-0.2525,-0.2517,-0.2407,-0.239,-0.2345,-0.2611,-0.2611,-0.2611,-0.2612,0,-0.2282,-0.2305,-0.2387,-0.2406,-0.2444,-0.2515,-0.2552,-0.2601,-0.2657,-0.2681,-0.2729,-0.2734,-0.2742,-0.2716,-0.2673,-0.2581,-0.2626,-0.2517,-0.2495,-0.2418,-0.2404,-0.2355,-0.2375,-0.2608,-0.2609,-0.261,-0.261,0,-0.2213,-0.2274,-0.2314,-0.2398,-0.2422,-0.2442,-0.2522,-0.2545,-0.262,-0.2649,-0.266,-0.2717,-0.2681,-0.2664,-0.2613,-0.2565,-0.244,-0.2448,-0.2338,-0.2304,-0.2169,-0.2196,-0.2112,-0.2054,-0.2305,-0.2303,-0.2301,0,-0.2181,-0.2197,-0.2278,-0.2291,-0.2323,-0.237,-0.2397,-0.2497,-0.2523,-0.2621,-0.2619,-0.2629,-0.2598,-0.2504,-0.242,-0.2316,-0.2327,-0.2174,-0.2181,-0.2136,-0.2151,-0.2172,-0.2132,-0.2046,-0.2042,-0.2038,-0.2036,0,-0.2105,-0.2132,-0.2159,-0.2196,-0.2223,-0.2264,-0.2313,-0.2339,-0.2449,-0.2478,-0.25,-0.2491,-0.2427,-0.2286,-0.218,-0.2114,-0.2115,-0.2102,-0.2095,-0.197,-0.1951,-0.1892,-0.2112,-0.2007,-0.201,-0.2012,-0.2013,-0.2015,-0.202,-0.2019,-0.2056,-0.2077,-0.211,-0.2136,-0.2121,-0.2183,-0.2211,-0.2224,-0.2306,-0.2249,-0.2186,-0.2018,-0.1948,-0.1806,-0.1881,-0.1759,-0.1798,-0.1827,-0.1763,-0.1898,-0.1753,-0.1754,-0.1755,-0.1757,-0.1757,0,-0.1911,-0.1922,-0.1935,-0.1958,-0.1939,-0.2004,-0.2037,-0.1995,-0.1966,-0.2007,-0.1985,-0.1932,-0.1798,-0.1753,-0.1619,-0.1535,-0.1512,-0.1511,-0.1533,-0.1509,-0.1646,-0.1626,-0.1399,-0.1399,-0.1399,-0.1399,-0.1399,-0.1399,-0.1852,-0.1824,-0.1837,-0.1774,-0.178,-0.1714,-0.1699,-0.1658,-0.1652,-0.1582,-0.1563,-0.1606,-0.1585,-0.163,-0.1495,-0.1416,-0.1392,-0.134,-0.1378,-0.15,-0.1527,-0.1553,-0.1539,-0.1297,-0.1297,-0.1179,-0.1178,-0.1178]},{"header":{"parameterUnit":"m.s-1","parameterCategory":2,"la1":30.2991,"la2":30.254,"lo1":-89.0895,"lo2":-89.0444,"dy":0.0017,"dx":0.0017,"nx":28,"ny":28,"refTime":"2024-02-08T03:00:00:Z","depth":"0","parameterNumber":3,"parameterNumberName":"V-component_of_CURRENTS"},"data":[0,0,0,0,0,0,0,0,0,0,0,0,0,0,0,0,0,0,0,0,0,0,0,0,0,0,0,0,0,0,0,0,0,0,0,0,0,0,0,0,0,0,0,0,0,0,0,0,0,0,0,0,0,0,0,0,0,0,-0.0226,-0.0226,0,-0.017,-0.0169,-0.0168,-0.0125,-0.0125,-0.0125,-0.0125,-0.0025,-0.0023,-0.0021,0,0,0,0,0,0,0,0,0,0,0,0,0,-0.0253,-0.0253,-0.0226,-0.0226,-0.0225,-0.017,-0.0169,-0.0168,-0.0125,-0.0125,-0.0125,-0.0124,-0.0026,-0.0023,-0.002,0,0,0,0,0,0,0,0,0,0,0,0,0,-0.0223,-0.0253,-0.0226,-0.0198,-0.0195,-0.017,-0.0169,-0.0168,-0.0126,-0.0125,-0.0125,-0.0124,-0.0027,-0.0023,-0.002,-0.0007,0,0,-0.0009,-0.0008,0,0,0,0,0,0,0,0,-0.0224,-0.0222,-0.0203,-0.02,-0.0196,-0.0155,-0.0142,-0.0112,-0.0126,-0.0151,-0.0124,-0.0124,-0.0066,-0.0059,-0.0048,-0.0003,0.0002,-0.0009,-0.0007,-0.0005,-0.0004,0,0,0,0,0,0,0,-0.0227,-0.0223,-0.0203,-0.0202,-0.0198,-0.0173,-0.0168,-0.0136,-0.011,-0.0149,-0.0146,-0.0141,-0.0063,-0.0052,-0.0046,0.0003,-0.0009,-0.0006,-0.0004,-0.0002,0.0077,0.0077,0,0,0,0,0,0,-0.0238,-0.0226,-0.0205,-0.0201,-0.0211,-0.0173,-0.0168,-0.0168,-0.0111,-0.0103,-0.0141,-0.0139,-0.0058,-0.005,-0.0042,-0.0019,-0.0005,-0.0002,0.0,0.0077,0.0077,0.0077,0,0,0,0,0,0,-0.0239,-0.0237,-0.0207,-0.0213,-0.0207,-0.0173,-0.0174,-0.0167,-0.0156,-0.0106,-0.0097,-0.0137,-0.0058,-0.0047,-0.0014,-0.0015,-0.0,0.0003,0.0077,0.0077,0.0077,0.0023,0,0,0,0,0,0,-0.024,-0.0238,-0.0244,-0.0214,-0.0207,-0.0199,-0.0174,-0.0166,-0.0154,-0.015,-0.0099,-0.009,-0.0056,-0.0019,-0.001,-0.001,0.0006,0.0077,0.0077,0.0077,0.0025,0.0021,0.0018,0,0,0,0,0,-0.0242,-0.0255,-0.0244,-0.0242,-0.0216,-0.02,-0.0195,-0.0168,-0.0154,-0.0155,-0.0116,-0.0091,-0.0013,-0.0017,-0.0006,-0.0005,0.0077,0.0077,0.0077,0.0027,0.0022,0.0018,0,0,0,0,0,0,-0.0269,-0.0251,-0.0239,-0.0246,-0.0227,-0.0193,-0.0193,-0.0173,-0.0143,-0.0139,-0.009,-0.0078,-0.0052,-0.002,-0.0026,0.0018,0.0036,0.0038,-0.0006,-0.001,-0.0013,-0.0024,0.0009,0,0,0,0,0,-0.0279,-0.0284,-0.0258,-0.0263,-0.0257,-0.0225,-0.0216,-0.0198,-0.0168,-0.0155,-0.0119,-0.0078,-0.0044,-0.0021,0.001,0.0036,0.0078,0.0044,0.0041,0.0038,0.0036,0.0102,0.0104,0.0077,0.0077,0.0077,0,0,-0.029,-0.0282,-0.0284,-0.027,-0.0253,-0.0252,-0.0219,-0.021,-0.0204,-0.0149,-0.013,-0.0092,-0.0041,-0.0014,0.0001,0.0013,0.0066,0.0038,0.0034,0.0035,0.0102,0.0105,0.0107,0.0077,0.0077,0.0077,0,0,-0.0322,-0.031,-0.0326,-0.0316,-0.0299,-0.0275,-0.0276,-0.0246,-0.0226,-0.0203,-0.0161,-0.0122,-0.0074,-0.0033,-0.0007,-0.0008,0.0042,-0.0002,-0.0021,0.0042,0.0045,0.0048,0.0098,0.0106,0.0002,0.0002,0.0002,0,-0.0338,-0.0355,-0.0327,-0.0341,-0.0337,-0.0291,-0.0304,-0.0278,-0.0239,-0.022,-0.0206,-0.0123,-0.0082,-0.0035,-0.0036,-0.0016,0.0024,-0.0012,0.0038,0.0042,0.0046,0.0096,0.0106,-0.0001,-0.0001,-0.0,-0.0,0,-0.0383,-0.0394,-0.0403,-0.0403,-0.0392,-0.0397,-0.0359,-0.0341,-0.0309,-0.0275,-0.0227,-0.0166,-0.0114,-0.0095,-0.0065,-0.0018,0.0,0.0021,0.0046,0.0045,0.0099,0.0109,-0.0005,-0.0004,-0.0003,-0.0002,0,0,-0.0423,-0.0435,-0.0438,-0.045,-0.0427,-0.0425,-0.0409,-0.0377,-0.0362,-0.031,-0.0279,-0.0213,-0.0171,-0.0139,-0.0089,-0.0033,0.0028,0.0,0.0005,0.0046,0.0161,0.0188,0.0202,0.0058,0.006,0.0062,0.0184,0,-0.0467,-0.0516,-0.0498,-0.0527,-0.0545,-0.0497,-0.049,-0.0451,-0.0399,-0.0356,-0.0274,-0.0228,-0.0189,-0.0161,-0.0099,-0.0001,0.0055,-0.0008,0.016,0.0164,0.0185,0.0216,0.0226,0.0338,0.0195,0.0197,0.0199,0,-0.0517,-0.0543,-0.0589,-0.0596,-0.0598,-0.0601,-0.0569,-0.0549,-0.0469,-0.0428,-0.0355,-0.0287,-0.0194,-0.0163,0.0004,-0.0038,0.0051,0.0127,0.0134,0.0186,0.0212,0.0318,0.0363,0.0492,0.0216,0.0215,0.0213,0,-0.057,-0.0601,-0.064,-0.0646,-0.0646,-0.0649,-0.0636,-0.0576,-0.0554,-0.0462,-0.0429,-0.0312,-0.0242,-0.0118,0.0038,0.0025,0.0226,0.0232,0.0339,0.0341,0.0397,0.0402,0.0585,0.0347,0.0346,0.0346,0.0346,0,-0.0627,-0.0656,-0.0673,-0.0699,-0.0739,-0.0707,-0.0713,-0.0681,-0.0617,-0.0582,-0.047,-0.0408,-0.0225,-0.0088,0.0038,0.0229,0.0232,0.0345,0.0382,0.0377,0.0379,0.0531,0.0574,0.035,0.0349,0.0349,0.0348,0,-0.0681,-0.0692,-0.074,-0.076,-0.077,-0.0794,-0.0782,-0.0775,-0.0706,-0.0652,-0.0625,-0.0462,-0.0274,-0.0091,0.0133,0.0237,0.0491,0.047,0.0445,0.0477,0.0678,0.0716,0.0923,0.1004,0.0605,0.0607,0.0608,0,-0.0716,-0.0748,-0.0797,-0.083,-0.0843,-0.0867,-0.0883,-0.0833,-0.0812,-0.0679,-0.0657,-0.0464,-0.0315,0.0021,0.0246,0.0483,0.0579,0.0621,0.0598,0.0705,0.0776,0.0796,0.0851,0.0652,0.0653,0.0654,0.0655,0,-0.0774,-0.0789,-0.0831,-0.0908,-0.0942,-0.097,-0.0978,-0.0978,-0.0893,-0.0823,-0.0686,-0.0552,-0.0217,0.0081,0.0387,0.0519,0.071,0.0652,0.0787,0.0849,0.0863,0.0953,0.0542,0.0666,0.0665,0.0665,0.0664,0.0664,-0.0807,-0.0855,-0.0912,-0.0979,-0.1022,-0.1057,-0.1068,-0.1037,-0.0992,-0.0858,-0.0722,-0.0491,-0.0064,0.038,0.0544,0.0864,0.0829,0.0944,0.0987,0.1003,0.1068,0.0671,0.0819,0.0819,0.0818,0.0818,0.0818,0,-0.0849,-0.0903,-0.0976,-0.1052,-0.1105,-0.1109,-0.1117,-0.1086,-0.1016,-0.0862,-0.0696,-0.0229,0.018,0.0561,0.1024,0.1194,0.1226,0.1268,0.1309,0.1355,0.1035,0.1023,0.1194,0.1194,0.1194,0.1194,0.1194,0.1193,-0.087,-0.0953,-0.0996,-0.1102,-0.1148,-0.1181,-0.1176,-0.1097,-0.0981,-0.0707,-0.0442,-0.0222,0.0325,0.107,0.1491,0.1517,0.1672,0.1633,0.1735,0.1513,0.1486,0.146,0.1462,0.1722,0.1723,0.2038,0.2041,0.2043]}],[{"header":{"parameterUnit":"m.s-1","parameterCategory":2,"la1":30.2991,"la2":30.254,"lo1":-89.0895,"lo2":-89.0444,"dy":0.0017,"dx":0.0017,"nx":28,"ny":28,"refTime":"2024-02-08T03:00:00:Z","depth":"2","parameterNumber":2,"parameterNumberName":"U-component_of_CURRENTS"},"data":[0,0,0,0,0,0,0,0,0,0,0,0,0,0,0,0,0,0,0,0,0,0,0,0,0,0,0,0,0,0,0,0,0,0,0,0,0,0,0,0,0,0,0,0,0,0,0,0,0,0,0,0,0,0,0,0,0,0,-0.209,-0.2091,0,-0.2119,-0.2119,-0.2119,-0.2103,-0.2103,-0.2102,-0.2102,-0.2081,-0.2081,-0.2081,0,0,0,0,0,0,0,0,0,0,0,0,0,-0.2027,-0.2028,-0.209,-0.2091,-0.2091,-0.2119,-0.2119,-0.2119,-0.2104,-0.2103,-0.2102,-0.2102,-0.2081,-0.2081,-0.2081,0,0,0,0,0,0,0,0,0,0,0,0,0,-0.2053,-0.2029,-0.209,-0.2089,-0.2089,-0.2118,-0.2119,-0.2119,-0.2104,-0.2103,-0.2102,-0.2101,-0.2081,-0.2081,-0.2081,-0.2097,0,0,-0.2081,-0.2081,0,0,0,0,0,0,0,0,-0.2052,-0.2055,-0.2088,-0.2089,-0.2089,-0.2109,-0.2089,-0.211,-0.2104,-0.2096,-0.2102,-0.2101,-0.2088,-0.2087,-0.2092,-0.2096,-0.2095,-0.2081,-0.2081,-0.2081,-0.2081,0,0,0,0,0,0,0,-0.205,-0.2054,-0.2099,-0.2089,-0.209,-0.2088,-0.2091,-0.2093,-0.2093,-0.2096,-0.2096,-0.2103,-0.2087,-0.2092,-0.2091,-0.2095,-0.2081,-0.2081,-0.2081,-0.2081,-0.2121,-0.2122,0,0,0,0,0,0,-0.2052,-0.2052,-0.2098,-0.21,-0.2071,-0.209,-0.2093,-0.2101,-0.2094,-0.2094,-0.2104,-0.2102,-0.2092,-0.2091,-0.209,-0.2118,-0.2081,-0.2081,-0.2081,-0.212,-0.2121,-0.2122,0,0,0,0,0,0,-0.205,-0.2056,-0.2097,-0.2078,-0.2084,-0.2092,-0.2102,-0.2102,-0.2107,-0.2101,-0.2098,-0.2108,-0.2092,-0.209,-0.2096,-0.2117,-0.2081,-0.208,-0.2118,-0.212,-0.2122,-0.2169,0,0,0,0,0,0,-0.2049,-0.2055,-0.206,-0.2079,-0.2085,-0.2117,-0.2103,-0.2104,-0.2114,-0.2112,-0.2104,-0.2101,-0.2091,-0.2097,-0.2096,-0.2116,-0.208,-0.2117,-0.2119,-0.2121,-0.2166,-0.2172,-0.2177,0,0,0,0,0,-0.2046,-0.2056,-0.206,-0.2065,-0.2092,-0.2118,-0.2121,-0.2123,-0.2115,-0.2122,-0.2117,-0.2101,-0.2109,-0.2097,-0.2097,-0.2117,-0.2116,-0.2119,-0.2121,-0.2163,-0.2171,-0.2177,0,0,0,0,0,0,-0.2028,-0.2056,-0.206,-0.2077,-0.2098,-0.2116,-0.2122,-0.2127,-0.213,-0.2125,-0.2114,-0.2111,-0.2126,-0.2117,-0.2104,-0.2136,-0.2111,-0.2114,-0.2144,-0.2151,-0.2156,-0.215,-0.208,0,0,0,0,0,-0.2028,-0.2041,-0.2071,-0.2082,-0.2094,-0.2109,-0.2119,-0.2126,-0.2134,-0.2134,-0.2131,-0.213,-0.2138,-0.2138,-0.2141,-0.2157,-0.2135,-0.2171,-0.2177,-0.2181,-0.2177,-0.2176,-0.218,-0.213,-0.213,-0.213,0,0,-0.2024,-0.204,-0.2047,-0.2078,-0.2091,-0.2119,-0.2112,-0.2131,-0.2153,-0.2132,-0.215,-0.2149,-0.2147,-0.2167,-0.2172,-0.2159,-0.2183,-0.2185,-0.2189,-0.2182,-0.2179,-0.2183,-0.2188,-0.2132,-0.2132,-0.2131,0,0,-0.2026,-0.2037,-0.2053,-0.2076,-0.2105,-0.2121,-0.213,-0.2156,-0.2163,-0.2187,-0.2179,-0.219,-0.22,-0.2205,-0.2208,-0.2246,-0.2214,-0.225,-0.2272,-0.2271,-0.2275,-0.2278,-0.2246,-0.2245,-0.2251,-0.2252,-0.2252,0,-0.2019,-0.2045,-0.2061,-0.2088,-0.2107,-0.2125,-0.2152,-0.2172,-0.2196,-0.2205,-0.2197,-0.2222,-0.2219,-0.2246,-0.2259,-0.2259,-0.224,-0.2246,-0.2277,-0.228,-0.2282,-0.2249,-0.2248,-0.2254,-0.2254,-0.2254,-0.2253,0,-0.204,-0.2063,-0.2074,-0.2115,-0.2139,-0.2162,-0.2198,-0.222,-0.2231,-0.2247,-0.2273,-0.2274,-0.2285,-0.2295,-0.2287,-0.2311,-0.2285,-0.2285,-0.2258,-0.229,-0.2252,-0.2251,-0.2258,-0.2257,-0.2256,-0.2256,0,0,-0.2012,-0.2077,-0.2078,-0.2103,-0.2154,-0.2174,-0.2218,-0.2258,-0.2279,-0.2302,-0.2323,-0.2347,-0.2341,-0.2345,-0.2342,-0.2342,-0.2341,-0.2321,-0.2319,-0.2283,-0.2314,-0.2236,-0.2226,-0.2347,-0.2348,-0.2348,-0.2276,0,-0.202,-0.2067,-0.2102,-0.2148,-0.2175,-0.2214,-0.2252,-0.2291,-0.2314,-0.2338,-0.235,-0.2366,-0.2364,-0.2366,-0.2371,-0.2352,-0.2341,-0.2359,-0.2292,-0.2289,-0.2213,-0.2223,-0.2072,-0.1991,-0.2274,-0.2274,-0.2274,0,-0.2023,-0.2056,-0.2101,-0.2164,-0.2179,-0.2212,-0.2263,-0.2303,-0.2348,-0.2365,-0.2388,-0.2391,-0.2404,-0.2392,-0.2374,-0.2384,-0.235,-0.2329,-0.2326,-0.2234,-0.2209,-0.2008,-0.1977,-0.227,-0.2271,-0.2271,-0.2271,0,-0.1979,-0.2049,-0.208,-0.2103,-0.2183,-0.2208,-0.2246,-0.2302,-0.2329,-0.2374,-0.2389,-0.2408,-0.2409,-0.239,-0.2354,-0.2362,-0.2314,-0.2321,-0.2214,-0.2207,-0.2054,-0.2033,-0.2296,-0.2296,-0.2296,-0.2296,-0.2297,0,-0.1965,-0.1986,-0.2062,-0.2079,-0.2115,-0.2181,-0.2218,-0.2264,-0.2318,-0.2336,-0.239,-0.2394,-0.241,-0.2388,-0.2352,-0.2269,-0.2312,-0.2208,-0.2186,-0.2065,-0.2047,-0.2275,-0.2273,-0.2294,-0.2294,-0.2295,-0.2295,0,-0.1903,-0.1958,-0.1994,-0.2073,-0.2095,-0.2116,-0.219,-0.221,-0.2283,-0.2307,-0.2319,-0.2375,-0.2346,-0.2338,-0.2294,-0.2252,-0.2189,-0.2146,-0.1987,-0.1948,-0.2079,-0.2081,-0.2017,-0.2014,-0.2011,-0.2009,-0.2007,0,-0.1874,-0.1887,-0.1962,-0.1974,-0.2006,-0.2051,-0.2075,-0.2168,-0.2188,-0.2277,-0.2269,-0.2284,-0.2252,-0.2174,-0.2102,-0.2013,-0.2093,-0.1829,-0.1824,-0.2066,-0.2052,-0.2059,-0.2064,-0.1632,-0.1627,-0.1623,-0.162,0,-0.1804,-0.183,-0.1856,-0.1887,-0.1913,-0.1946,-0.1988,-0.2007,-0.2105,-0.2128,-0.2141,-0.213,-0.2078,-0.1923,-0.1836,-0.1772,-0.1836,-0.1744,-0.2032,-0.1735,-0.1699,-0.1687,-0.1706,-0.1584,-0.1588,-0.1591,-0.1593,-0.1594,-0.1729,-0.1728,-0.176,-0.1776,-0.1806,-0.1819,-0.1799,-0.1847,-0.1862,-0.1861,-0.194,-0.1864,-0.1852,-0.163,-0.1534,-0.1466,-0.1594,-0.1525,-0.1539,-0.1556,-0.1534,-0.1496,-0.1337,-0.1339,-0.134,-0.1342,-0.1343,0,-0.1628,-0.1636,-0.1645,-0.166,-0.1636,-0.1698,-0.1713,-0.1662,-0.162,-0.1641,-0.1613,-0.1446,-0.1344,-0.1337,-0.1173,-0.1139,-0.1145,-0.1094,-0.1104,-0.1139,-0.117,-0.113,-0.0825,-0.0823,-0.0822,-0.082,0,0,-0.1574,-0.1543,-0.155,-0.1479,-0.1483,-0.1411,-0.1388,-0.1331,-0.1308,-0.1218,-0.1171,-0.1255,-0.1294,-0.1059,-0.1003,-0.0885,-0.1003,-0.084,-0.1256,-0.1303,-0.1333,-0.1418,-0.1395,0,0,0,0,0]},{"header":{"parameterUnit":"m.s-1","parameterCategory":2,"la1":30.2991,"la2":30.254,"lo1":-89.0895,"lo2":-89.0444,"dy":0.0017,"dx":0.0017,"nx":28,"ny":28,"refTime":"2024-02-08T03:00:00:Z","depth":"2","parameterNumber":3,"parameterNumberName":"V-component_of_CURRENTS"},"data":[0,0,0,0,0,0,0,0,0,0,0,0,0,0,0,0,0,0,0,0,0,0,0,0,0,0,0,0,0,0,0,0,0,0,0,0,0,0,0,0,0,0,0,0,0,0,0,0,0,0,0,0,0,0,0,0,0,0,-0.0282,-0.0281,0,-0.0232,-0.0232,-0.0231,-0.0193,-0.0193,-0.0192,-0.0192,-0.0103,-0.0101,-0.0098,0,0,0,0,0,0,0,0,0,0,0,0,0,-0.0302,-0.0302,-0.0282,-0.0281,-0.0281,-0.0232,-0.0231,-0.0231,-0.0193,-0.0193,-0.0192,-0.0192,-0.0103,-0.0101,-0.0098,0,0,0,0,0,0,0,0,0,0,0,0,0,-0.0277,-0.0302,-0.0282,-0.0257,-0.0254,-0.0232,-0.0231,-0.0231,-0.0193,-0.0193,-0.0192,-0.0192,-0.0104,-0.0101,-0.0098,-0.0087,0,0,-0.0088,-0.0087,0,0,0,0,0,0,0,0,-0.0278,-0.0276,-0.0261,-0.0258,-0.0255,-0.0219,-0.0206,-0.0181,-0.0193,-0.0215,-0.0192,-0.0192,-0.0139,-0.0133,-0.0124,-0.0083,-0.0079,-0.0088,-0.0086,-0.0085,-0.0084,0,0,0,0,0,0,0,-0.028,-0.0277,-0.0261,-0.026,-0.0257,-0.0234,-0.023,-0.0201,-0.0179,-0.0213,-0.0211,-0.0207,-0.0137,-0.0127,-0.0121,-0.0077,-0.0088,-0.0085,-0.0083,-0.0082,-0.0012,-0.0012,0,0,0,0,0,0,-0.0291,-0.028,-0.0263,-0.026,-0.0267,-0.0234,-0.0229,-0.023,-0.018,-0.0172,-0.0207,-0.0205,-0.0133,-0.0125,-0.0118,-0.0098,-0.0085,-0.0082,-0.008,-0.0012,-0.0012,-0.0012,0,0,0,0,0,0,-0.0291,-0.029,-0.0265,-0.0269,-0.0264,-0.0234,-0.0235,-0.023,-0.0219,-0.0175,-0.0167,-0.0203,-0.0132,-0.0122,-0.0092,-0.0094,-0.008,-0.0077,-0.0012,-0.0012,-0.0012,-0.006,0,0,0,0,0,0,-0.0292,-0.029,-0.0296,-0.027,-0.0264,-0.0258,-0.0236,-0.0229,-0.0218,-0.0215,-0.0169,-0.016,-0.0131,-0.0097,-0.0089,-0.009,-0.0075,-0.0012,-0.0012,-0.0012,-0.0059,-0.0062,-0.0065,0,0,0,0,0,-0.0293,-0.0305,-0.0297,-0.0294,-0.0273,-0.0259,-0.0254,-0.023,-0.0218,-0.0218,-0.0184,-0.0162,-0.0092,-0.0095,-0.0085,-0.0085,-0.0012,-0.0012,-0.0012,-0.0057,-0.0061,-0.0065,0,0,0,0,0,0,-0.0317,-0.0302,-0.0292,-0.0299,-0.0282,-0.0253,-0.0252,-0.0235,-0.0208,-0.0204,-0.0161,-0.015,-0.0126,-0.0098,-0.0102,-0.0065,-0.0049,-0.0047,-0.0086,-0.009,-0.0093,-0.0104,-0.0072,0,0,0,0,0,-0.0326,-0.0331,-0.0309,-0.0314,-0.0309,-0.0281,-0.0273,-0.0257,-0.023,-0.0218,-0.0186,-0.015,-0.012,-0.01,-0.0072,-0.0049,-0.0014,-0.0042,-0.0046,-0.0048,-0.0051,0.0004,0.0006,-0.0012,-0.0012,-0.0012,0,0,-0.0336,-0.0329,-0.0331,-0.032,-0.0305,-0.0305,-0.0275,-0.0268,-0.0262,-0.0212,-0.0196,-0.0162,-0.0117,-0.0094,-0.0081,-0.0069,-0.0026,-0.0049,-0.0051,-0.0052,0.0004,0.0006,0.0008,-0.0012,-0.0012,-0.0012,0,0,-0.0364,-0.0354,-0.0369,-0.0361,-0.0346,-0.0325,-0.0326,-0.0299,-0.0282,-0.0261,-0.0225,-0.019,-0.0148,-0.0112,-0.0089,-0.0091,-0.0048,-0.0085,-0.0103,-0.005,-0.0048,-0.0046,-0.0005,0.0001,-0.0082,-0.0082,-0.0082,0,-0.0377,-0.0393,-0.037,-0.0383,-0.038,-0.0339,-0.0352,-0.0328,-0.0293,-0.0278,-0.0264,-0.0192,-0.0155,-0.0116,-0.0117,-0.0098,-0.0065,-0.0094,-0.0055,-0.0052,-0.0048,-0.0007,0.0001,-0.0084,-0.0084,-0.0084,-0.0083,0,-0.0418,-0.0428,-0.0436,-0.0437,-0.0429,-0.0434,-0.0401,-0.0386,-0.0357,-0.0328,-0.0288,-0.0232,-0.0188,-0.017,-0.0143,-0.0104,-0.0089,-0.0069,-0.0047,-0.005,-0.0006,0.0003,-0.0088,-0.0087,-0.0086,-0.0085,0,0,-0.0453,-0.0464,-0.0467,-0.0479,-0.046,-0.046,-0.0447,-0.0421,-0.0409,-0.0363,-0.0339,-0.0279,-0.0242,-0.0214,-0.0169,-0.012,-0.0071,-0.009,-0.0086,-0.0054,0.004,0.0064,0.0077,-0.0044,-0.0042,-0.0041,0.0059,0,-0.0491,-0.0535,-0.0521,-0.0549,-0.0566,-0.0526,-0.0521,-0.0489,-0.0444,-0.0408,-0.0336,-0.0298,-0.026,-0.0236,-0.0181,-0.0097,-0.0049,-0.01,0.0041,0.0045,0.0064,0.0087,0.0058,0.0147,0.0068,0.007,0.0071,0,-0.0535,-0.0559,-0.0601,-0.0612,-0.0615,-0.062,-0.0597,-0.0581,-0.0513,-0.0478,-0.0415,-0.0356,-0.0276,-0.0244,-0.0101,-0.0136,-0.0057,0.001,0.0016,0.0062,0.0086,0.0139,0.0166,0.0086,0.0085,0.0084,0.0083,0,-0.0582,-0.0611,-0.0649,-0.0655,-0.0659,-0.0665,-0.0655,-0.0606,-0.0591,-0.0513,-0.0487,-0.0385,-0.0326,-0.0216,-0.0078,-0.0087,0.0083,0.0091,0.0186,0.0188,0.0204,0.0205,0.0189,0.0189,0.0189,0.0189,0.0188,0,-0.0632,-0.0661,-0.0678,-0.0702,-0.0742,-0.0717,-0.0728,-0.0702,-0.0651,-0.0628,-0.0527,-0.0479,-0.0314,-0.0196,-0.0083,0.0084,0.0084,0.0189,0.0222,0.0185,0.0184,0.0162,0.0157,0.0192,0.0192,0.0191,0.019,0,-0.068,-0.0691,-0.0737,-0.0759,-0.077,-0.0795,-0.0793,-0.0792,-0.0735,-0.0697,-0.0675,-0.0536,-0.0374,-0.0209,-0.0012,0.0084,0.0234,0.0289,0.023,0.0254,0.0301,0.0293,0.0404,0.0406,0.0407,0.0408,0.041,0,-0.0711,-0.0741,-0.079,-0.0821,-0.0835,-0.0862,-0.0881,-0.0843,-0.0831,-0.073,-0.0715,-0.0551,-0.0425,-0.0128,0.0077,0.029,0.0287,0.0378,0.0358,0.0305,0.0326,0.0315,0.0305,0.0358,0.0359,0.0359,0.036,0,-0.0763,-0.0777,-0.0817,-0.0891,-0.0926,-0.0958,-0.0973,-0.0978,-0.0913,-0.0861,-0.0755,-0.0644,-0.0351,-0.0102,0.0177,0.0289,0.0341,0.0394,0.0376,0.0303,0.027,0.0287,0.0278,0.0364,0.0363,0.0363,0.0363,0.0363,-0.0793,-0.0837,-0.089,-0.0955,-0.1,-0.1038,-0.1053,-0.1033,-0.1004,-0.0895,-0.0791,-0.0595,-0.0354,0.0049,0.0247,0.0423,0.041,0.0448,0.0444,0.044,0.0412,0.0382,0.0492,0.0492,0.0492,0.0492,0.0493,0,-0.0831,-0.0881,-0.0949,-0.1023,-0.1077,-0.1085,-0.1102,-0.1076,-0.1023,-0.0893,-0.0757,-0.0485,-0.0205,0.0042,0.0329,0.0496,0.0474,0.0515,0.0456,0.045,0.0446,0.0415,0.0498,0.0499,0.05,0.05,0,0,-0.0851,-0.0927,-0.0966,-0.1068,-0.1114,-0.1151,-0.1152,-0.1085,-0.0985,-0.0836,-0.0684,-0.0486,-0.0194,0.0016,0.0228,0.0378,0.0368,0.0384,0.0359,0.0258,0.0252,0.0384,0.0329,0,0,0,0,0]}],[{"header":{"parameterUnit":"m.s-1","parameterCategory":2,"la1":30.2991,"la2":30.254,"lo1":-89.0895,"lo2":-89.0444,"dy":0.0017,"dx":0.0017,"nx":28,"ny":28,"refTime":"2024-02-08T03:00:00:Z","depth":"4","parameterNumber":2,"parameterNumberName":"U-component_of_CURRENTS"},"data":[0,0,0,0,0,0,0,0,0,0,0,0,0,0,0,0,0,0,0,0,0,0,0,0,0,0,0,0,0,0,0,0,0,0,0,0,0,0,0,0,0,0,0,0,0,0,0,0,0,0,0,0,0,0,0,0,0,0,-0.1429,-0.1429,0,-0.1484,-0.1484,-0.1485,-0.1517,-0.1518,-0.1518,-0.1518,-0.156,-0.1561,-0.1562,0,0,0,0,0,0,0,0,0,0,0,0,0,-0.1356,-0.1357,-0.1429,-0.1429,-0.143,-0.1484,-0.1484,-0.1485,-0.1517,-0.1518,-0.1518,-0.1518,-0.156,-0.1561,-0.1562,0,0,0,0,0,0,0,0,0,0,0,0,0,-0.1395,-0.1357,-0.1429,-0.1454,-0.1457,-0.1483,-0.1484,-0.1485,-0.1517,-0.1518,-0.1518,-0.1519,-0.156,-0.1561,-0.1562,-0.1561,0,0,-0.1566,-0.1566,0,0,0,0,0,0,0,0,-0.1393,-0.1398,-0.145,-0.1452,-0.1456,-0.1495,-0.1474,-0.151,-0.1517,-0.1493,-0.1518,-0.1519,-0.1538,-0.1541,-0.1548,-0.1563,-0.1565,-0.1566,-0.1567,-0.1567,-0.1568,0,0,0,0,0,0,0,-0.139,-0.1396,-0.1449,-0.145,-0.1454,-0.1464,-0.147,-0.1481,-0.1511,-0.1495,-0.1498,-0.1506,-0.1539,-0.1547,-0.155,-0.1565,-0.1566,-0.1567,-0.1568,-0.1568,-0.1647,-0.1648,0,0,0,0,0,0,-0.1386,-0.1393,-0.1447,-0.1451,-0.1427,-0.1465,-0.1472,-0.1481,-0.1511,-0.1517,-0.1506,-0.1508,-0.1545,-0.1548,-0.1551,-0.1615,-0.1567,-0.1568,-0.1569,-0.1646,-0.1647,-0.1649,0,0,0,0,0,0,-0.1384,-0.139,-0.1445,-0.1424,-0.1432,-0.1466,-0.1476,-0.1482,-0.1514,-0.152,-0.1525,-0.1535,-0.1545,-0.1549,-0.1585,-0.1615,-0.1569,-0.157,-0.1644,-0.1646,-0.1648,-0.1702,0,0,0,0,0,0,-0.1382,-0.1389,-0.1406,-0.1424,-0.1433,-0.1477,-0.1476,-0.1483,-0.1518,-0.1521,-0.1546,-0.1549,-0.1546,-0.1583,-0.1586,-0.1616,-0.1571,-0.1643,-0.1645,-0.1648,-0.1699,-0.1706,-0.1712,0,0,0,0,0,-0.1379,-0.1395,-0.1406,-0.1414,-0.1451,-0.1478,-0.1484,-0.1508,-0.1519,-0.1538,-0.1557,-0.155,-0.1601,-0.1585,-0.1588,-0.1619,-0.1641,-0.1644,-0.1647,-0.1696,-0.1705,-0.1712,0,0,0,0,0,0,-0.1373,-0.1401,-0.1413,-0.1438,-0.1465,-0.1485,-0.1507,-0.1523,-0.1553,-0.1563,-0.1566,-0.1571,-0.1613,-0.1609,-0.1591,-0.1649,-0.162,-0.1624,-0.1656,-0.1664,-0.1671,-0.1662,-0.1572,0,0,0,0,0,-0.1379,-0.1399,-0.1426,-0.1448,-0.1464,-0.149,-0.1509,-0.1528,-0.1552,-0.1567,-0.1586,-0.1605,-0.1624,-0.1639,-0.1653,-0.1684,-0.1661,-0.1706,-0.1713,-0.1719,-0.1714,-0.1712,-0.1717,-0.1659,-0.1659,-0.1659,0,0,-0.1384,-0.1401,-0.1415,-0.1449,-0.1471,-0.1502,-0.1503,-0.154,-0.1571,-0.1565,-0.1618,-0.163,-0.1638,-0.1675,-0.1693,-0.1678,-0.1723,-0.1722,-0.1727,-0.1719,-0.1716,-0.1721,-0.1726,-0.1661,-0.166,-0.166,0,0,-0.1396,-0.142,-0.1441,-0.1467,-0.1507,-0.1524,-0.1541,-0.1579,-0.1604,-0.165,-0.1655,-0.1685,-0.1719,-0.1728,-0.1736,-0.1787,-0.1758,-0.1798,-0.1826,-0.1824,-0.1829,-0.1832,-0.1803,-0.1804,-0.1802,-0.1802,-0.1802,0,-0.1404,-0.1431,-0.1453,-0.1481,-0.1507,-0.1538,-0.157,-0.16,-0.1648,-0.1668,-0.1677,-0.1731,-0.1742,-0.1776,-0.1797,-0.1801,-0.1785,-0.1795,-0.1832,-0.1835,-0.1837,-0.1807,-0.1807,-0.1805,-0.1804,-0.1804,-0.1804,0,-0.1425,-0.146,-0.1475,-0.152,-0.1552,-0.1585,-0.1627,-0.1666,-0.1701,-0.1726,-0.1778,-0.1794,-0.1821,-0.1837,-0.1835,-0.1866,-0.1843,-0.1839,-0.1808,-0.1846,-0.1812,-0.1811,-0.1809,-0.1808,-0.1807,-0.1806,0,0,-0.1407,-0.1477,-0.1485,-0.1514,-0.1577,-0.1601,-0.166,-0.171,-0.1743,-0.1794,-0.1829,-0.1875,-0.1882,-0.189,-0.1895,-0.1899,-0.1907,-0.1883,-0.1881,-0.1847,-0.1885,-0.1763,-0.175,-0.1913,-0.1914,-0.1914,-0.185,0,-0.1419,-0.1471,-0.1509,-0.1568,-0.1598,-0.165,-0.1697,-0.1749,-0.1791,-0.1832,-0.1859,-0.1895,-0.1903,-0.1918,-0.1928,-0.1914,-0.1908,-0.1923,-0.1858,-0.1856,-0.1738,-0.1746,-0.1915,-0.1849,-0.1848,-0.1848,-0.1848,0,-0.142,-0.1457,-0.1515,-0.1588,-0.1607,-0.1652,-0.1723,-0.1771,-0.1833,-0.1864,-0.1905,-0.1921,-0.1947,-0.1943,-0.1936,-0.1947,-0.192,-0.1903,-0.19,-0.1764,-0.1731,-0.1805,-0.1845,-0.1846,-0.1846,-0.1846,-0.1846,0,-0.1375,-0.1457,-0.1502,-0.153,-0.1619,-0.166,-0.1711,-0.1782,-0.1815,-0.1882,-0.1903,-0.1939,-0.1952,-0.1942,-0.192,-0.193,-0.1888,-0.1894,-0.1754,-0.1745,-0.185,-0.1847,-0.1876,-0.1876,-0.1876,-0.1876,-0.1876,0,-0.1353,-0.1392,-0.149,-0.1514,-0.1569,-0.1644,-0.1701,-0.1756,-0.1821,-0.184,-0.1914,-0.1914,-0.1955,-0.1939,-0.1915,-0.1819,-0.1883,-0.1746,-0.1719,-0.1874,-0.1874,-0.1848,-0.1846,-0.1874,-0.1874,-0.1875,-0.1875,0,-0.1288,-0.1357,-0.1413,-0.1516,-0.155,-0.1589,-0.1684,-0.1709,-0.1794,-0.1819,-0.1838,-0.1895,-0.1868,-0.1879,-0.1847,-0.1791,-0.1726,-0.1676,-0.1821,-0.1806,-0.1583,-0.1585,-0.1505,-0.15,-0.1496,-0.1492,-0.1489,0,-0.1255,-0.128,-0.1393,-0.1421,-0.1472,-0.1543,-0.1576,-0.1678,-0.1695,-0.1778,-0.1762,-0.1784,-0.18,-0.165,-0.1687,-0.1617,-0.1604,-0.1561,-0.1589,-0.1562,-0.1545,-0.1553,-0.156,-0.1483,-0.1482,-0.1481,-0.148,0,-0.1185,-0.1238,-0.1279,-0.134,-0.1389,-0.1432,-0.1489,-0.1491,-0.1586,-0.1676,-0.1631,-0.161,-0.1574,-0.1548,-0.1506,-0.1464,-0.1587,-0.1518,-0.1527,-0.1552,-0.1534,-0.1524,-0.1535,-0.1465,-0.1467,-0.1469,-0.147,0,-0.1124,-0.1136,-0.1196,-0.1233,-0.129,-0.1296,-0.1349,-0.1356,-0.1389,-0.1484,-0.1456,-0.1487,-0.1542,-0.1464,-0.1424,-0.1375,-0.1357,-0.1318,-0.1337,-0.1353,-0.1336,-0.1293,-0.1112,0,0,0,0,0,-0.1056,-0.1053,-0.108,-0.1114,-0.1162,-0.1192,-0.127,-0.1322,-0.1414,-0.1335,-0.1394,-0.1351,-0.1301,-0.132,-0.1234,-0.1357,-0.1368,-0.1254,-0.1335,-0.1386,-0.1403,-0.1398,0,0,0,0,0,0,-0.101,-0.1032,-0.1039,-0.0998,-0.0993,-0.1031,-0.1076,-0.1143,-0.111,-0.1209,-0.1182,-0.1256,-0.1222,-0.1312,-0.1198,-0.1203,-0.1224,-0.128,-0.1276,-0.1377,-0.1392,-0.1405,-0.1406,0,0,0,0,0]},{"header":{"parameterUnit":"m.s-1","parameterCategory":2,"la1":30.2991,"la2":30.254,"lo1":-89.0895,"lo2":-89.0444,"dy":0.0017,"dx":0.0017,"nx":28,"ny":28,"refTime":"2024-02-08T03:00:00:Z","depth":"4","parameterNumber":3,"parameterNumberName":"V-component_of_CURRENTS"},"data":[0,0,0,0,0,0,0,0,0,0,0,0,0,0,0,0,0,0,0,0,0,0,0,0,0,0,0,0,0,0,0,0,0,0,0,0,0,0,0,0,0,0,0,0,0,0,0,0,0,0,0,0,0,0,0,0,0,0,-0.0238,-0.0238,0,-0.0208,-0.0208,-0.0208,-0.0186,-0.0186,-0.0186,-0.0186,-0.0123,-0.0122,-0.012,0,0,0,0,0,0,0,0,0,0,0,0,0,-0.0243,-0.0244,-0.0238,-0.0238,-0.0237,-0.0208,-0.0208,-0.0208,-0.0186,-0.0186,-0.0186,-0.0186,-0.0124,-0.0122,-0.012,0,0,0,0,0,0,0,0,0,0,0,0,0,-0.023,-0.0244,-0.0238,-0.0224,-0.0222,-0.0209,-0.0208,-0.0207,-0.0186,-0.0186,-0.0186,-0.0186,-0.0124,-0.0122,-0.012,-0.0109,0,0,-0.0113,-0.0112,0,0,0,0,0,0,0,0,-0.023,-0.0229,-0.0226,-0.0225,-0.0223,-0.0202,-0.0187,-0.0173,-0.0186,-0.0199,-0.0186,-0.0186,-0.0147,-0.0143,-0.0137,-0.0106,-0.0103,-0.0112,-0.0111,-0.011,-0.0109,0,0,0,0,0,0,0,-0.0231,-0.023,-0.0225,-0.0226,-0.0224,-0.0208,-0.0206,-0.0184,-0.0173,-0.0198,-0.0197,-0.0195,-0.0146,-0.0139,-0.0135,-0.0102,-0.0113,-0.011,-0.0109,-0.0108,-0.0059,-0.0059,0,0,0,0,0,0,-0.0239,-0.0231,-0.0226,-0.0225,-0.0227,-0.0208,-0.0206,-0.0208,-0.0174,-0.0169,-0.0195,-0.0194,-0.0143,-0.0138,-0.0133,-0.0122,-0.011,-0.0108,-0.0106,-0.0058,-0.0059,-0.0059,0,0,0,0,0,0,-0.0239,-0.0239,-0.0228,-0.0228,-0.0225,-0.0209,-0.0211,-0.0208,-0.0204,-0.0172,-0.0166,-0.0195,-0.0143,-0.0136,-0.0116,-0.0119,-0.0107,-0.0105,-0.0058,-0.0058,-0.0059,-0.0097,0,0,0,0,0,0,-0.0239,-0.0239,-0.0245,-0.0228,-0.0226,-0.0226,-0.0211,-0.0207,-0.0203,-0.0201,-0.017,-0.0164,-0.0142,-0.012,-0.0114,-0.0116,-0.0103,-0.0058,-0.0058,-0.0059,-0.0096,-0.0099,-0.0101,0,0,0,0,0,-0.024,-0.025,-0.0246,-0.0246,-0.0234,-0.0226,-0.0223,-0.021,-0.0203,-0.0205,-0.0182,-0.0165,-0.0116,-0.0118,-0.0111,-0.0112,-0.0058,-0.0058,-0.0059,-0.0095,-0.0098,-0.0101,0,0,0,0,0,0,-0.0256,-0.0249,-0.0244,-0.0252,-0.0242,-0.0223,-0.0225,-0.0214,-0.0198,-0.0196,-0.0165,-0.0157,-0.0143,-0.0121,-0.0123,-0.0099,-0.0085,-0.0084,-0.0115,-0.0118,-0.0121,-0.0131,-0.0101,0,0,0,0,0,-0.0263,-0.027,-0.0257,-0.0264,-0.0261,-0.0244,-0.024,-0.0231,-0.0213,-0.0206,-0.0184,-0.0159,-0.0138,-0.0123,-0.0104,-0.0087,-0.0063,-0.0084,-0.0087,-0.0089,-0.0092,-0.0053,-0.0052,-0.0059,-0.0059,-0.0059,0,0,-0.0272,-0.0269,-0.0273,-0.0268,-0.026,-0.0262,-0.0241,-0.0239,-0.0239,-0.0201,-0.0194,-0.017,-0.0137,-0.0122,-0.0113,-0.0103,-0.0075,-0.0089,-0.0092,-0.0094,-0.0053,-0.0052,-0.0051,-0.006,-0.0059,-0.0059,0,0,-0.0292,-0.029,-0.0303,-0.0299,-0.0292,-0.028,-0.0281,-0.0265,-0.0256,-0.0244,-0.0218,-0.0194,-0.0164,-0.0138,-0.0121,-0.0125,-0.0095,-0.0122,-0.0137,-0.0099,-0.0098,-0.0096,-0.0072,-0.0068,-0.0118,-0.0118,-0.0118,0,-0.0304,-0.0318,-0.0304,-0.0315,-0.0318,-0.0291,-0.0303,-0.0288,-0.0267,-0.0258,-0.0248,-0.02,-0.0171,-0.0145,-0.0146,-0.0131,-0.0109,-0.0129,-0.0102,-0.01,-0.0099,-0.0073,-0.0068,-0.012,-0.012,-0.0119,-0.0119,0,-0.0333,-0.0345,-0.0352,-0.0358,-0.0356,-0.0363,-0.0343,-0.0336,-0.032,-0.03,-0.0276,-0.0234,-0.0204,-0.019,-0.0168,-0.0142,-0.0132,-0.0114,-0.0096,-0.01,-0.0073,-0.0068,-0.0122,-0.0122,-0.0121,-0.0121,0,0,-0.0355,-0.0371,-0.0375,-0.0389,-0.0382,-0.0385,-0.0381,-0.0368,-0.0366,-0.0334,-0.0323,-0.0278,-0.0252,-0.0231,-0.0196,-0.0158,-0.0126,-0.0134,-0.0131,-0.0113,-0.005,-0.0045,-0.0038,-0.0103,-0.0102,-0.0101,-0.004,0,-0.0383,-0.042,-0.0415,-0.0444,-0.046,-0.0439,-0.044,-0.0424,-0.0397,-0.0378,-0.0324,-0.0301,-0.0267,-0.0252,-0.021,-0.0146,-0.0112,-0.0145,-0.0046,-0.0043,-0.004,-0.0032,-0.0098,-0.0035,-0.0034,-0.0033,-0.0032,0,-0.0413,-0.0435,-0.0474,-0.0495,-0.05,-0.0511,-0.0509,-0.0503,-0.0461,-0.0439,-0.0398,-0.0355,-0.0297,-0.0268,-0.0162,-0.0185,-0.0126,-0.0075,-0.0071,-0.0048,-0.0027,-0.0027,-0.0022,-0.0023,-0.0024,-0.0024,-0.0025,0,-0.0442,-0.0475,-0.0511,-0.0519,-0.0535,-0.0549,-0.0551,-0.0526,-0.0523,-0.0474,-0.0462,-0.0387,-0.0347,-0.0262,-0.0155,-0.0158,-0.0037,-0.0025,0.0033,0.0034,0.0027,0.0025,0.0045,0.0045,0.0045,0.0045,0.0044,0,-0.0472,-0.0502,-0.0533,-0.0555,-0.0599,-0.059,-0.0615,-0.0603,-0.0578,-0.057,-0.0498,-0.0468,-0.0342,-0.0256,-0.0165,-0.0048,-0.0043,0.0031,0.0054,0.0008,0.0004,0.0031,0.0028,0.0047,0.0046,0.0046,0.0046,0,-0.0497,-0.0517,-0.0563,-0.0599,-0.0617,-0.0646,-0.0671,-0.0678,-0.0648,-0.0633,-0.062,-0.0523,-0.0405,-0.0281,-0.0131,-0.0062,0.005,0.0088,0.0023,0.0041,0.0094,0.0089,0.0154,0.0155,0.0156,0.0156,0.0157,0,-0.0512,-0.0539,-0.0604,-0.0639,-0.0661,-0.0702,-0.0728,-0.0718,-0.0716,-0.0663,-0.0653,-0.0544,-0.0465,-0.0249,-0.0122,0.0052,0.0076,0.0124,0.0115,0.0091,0.0107,0.0101,0.0095,0.0158,0.0158,0.0158,0.0158,0,-0.0537,-0.0563,-0.0603,-0.0681,-0.0726,-0.0767,-0.0797,-0.08,-0.0771,-0.0754,-0.0662,-0.0544,-0.0409,-0.0242,-0.0103,0.0018,0.0089,0.0132,0.0131,0.0123,0.0096,0.011,0.0103,0.0161,0.016,0.016,0.016,0,-0.0552,-0.0589,-0.0647,-0.0709,-0.0772,-0.0808,-0.0822,-0.0805,-0.0796,-0.0727,-0.0697,-0.0544,-0.0453,-0.0259,-0.0135,-0.0009,0.0018,0.005,0.0054,0.0053,0.0007,-0.0043,0.0,0,0,0,0,0,-0.0562,-0.0605,-0.067,-0.0737,-0.0797,-0.0829,-0.0856,-0.0851,-0.0826,-0.0763,-0.0725,-0.0593,-0.0384,-0.0292,-0.0164,-0.0136,0.0026,0.0015,0.006,0.0173,0.0171,0.0135,0,0,0,0,0,0,-0.057,-0.0633,-0.0668,-0.0743,-0.0788,-0.0847,-0.086,-0.0844,-0.0796,-0.0753,-0.0637,-0.0573,-0.0368,-0.0455,-0.0164,-0.0127,-0.0084,0.0114,0.0117,0.0175,0.0172,0.017,0.0133,0,0,0,0,0]}]]